This is the latest recevied weather packets stored in our database for station/object SP3TOM-10. If no packets are shown the sender has not sent any weather packets the latest 10 day(s).
| Time | Temp. | Humidity | Pressure | Rain* | Wind** | Luminosity | Snow |
|---|---|---|---|---|---|---|---|
| 1777583756 | 14.44° C | 36% | 1017 hPa | - | - | - | - |
| 1777582856 | 15° C | 35% | 1017 hPa | - | - | - | - |
| 1777581956 | 15° C | 35% | 1017 hPa | - | - | - | - |
| 1777581055 | 15° C | 36% | 1017.1 hPa | - | - | - | - |
| 1777580155 | 15.56° C | 36% | 1017 hPa | - | - | - | - |
| 1777579255 | 15.56° C | 35% | 1017 hPa | - | - | - | - |
| 1777578355 | 16.11° C | 34% | 1016.8 hPa | - | - | - | - |
| 1777577455 | 16.67° C | 34% | 1016.7 hPa | - | - | - | - |
| 1777576555 | 16.11° C | 34% | 1016.6 hPa | - | - | - | - |
| 1777575654 | 16.67° C | 33% | 1016.6 hPa | - | - | - | - |
| 1777574754 | 17.22° C | 33% | 1016.6 hPa | - | - | - | - |
| 1777573854 | 17.22° C | 34% | 1016.6 hPa | - | - | - | - |
| 1777572954 | 17.22° C | 33% | 1016.6 hPa | - | - | - | - |
| 1777572054 | 17.78° C | 33% | 1016.5 hPa | - | - | - | - |
| 1777571154 | 17.78° C | 33% | 1016.5 hPa | - | - | - | - |
| 1777570253 | 17.78° C | 33% | 1016.5 hPa | - | - | - | - |
| 1777569353 | 18.33° C | 32% | 1016.6 hPa | - | - | - | - |
| 1777568453 | 18.89° C | 30% | 1016.6 hPa | - | - | - | - |
| 1777567553 | 18.33° C | 32% | 1016.7 hPa | - | - | - | - |
| 1777566653 | 18.33° C | 31% | 1016.8 hPa | - | - | - | - |
| 1777565753 | 18.89° C | 31% | 1016.9 hPa | - | - | - | - |
| 1777564852 | 18.89° C | 30% | 1017 hPa | - | - | - | - |
| 1777563952 | 18.89° C | 30% | 1017.1 hPa | - | - | - | - |
| 1777563052 | 18.89° C | 30% | 1017.2 hPa | - | - | - | - |
| 1777562152 | 18.89° C | 30% | 1017.3 hPa | - | - | - | - |
* Rain since midnight (hover to see other rain measurements)
** Current wind speed in m/s (hover to see current wind gust speed)